Regional Weather Roundup
Issued by NWS Sterling, VA

Home | Current Version | Previous Version | Graphics & Text | Print | Product List | Glossary On
Versions: 1 2 3 4 5 6 7 8 9 10 11 12 13 14 15 16 17 18 19 20 21 22 23 24 25 26 27 28 29 30 31 32 33 34 35 36 37 38 39 40 41 42 43 44 45 46 47 48 49 50
000
ASUS41 KLWX 060110
RWRLWX

REGIONAL WEATHER ROUNDUP
NATIONAL WEATHER SERVICE BALTIMORE MD/WASHINGTON DC
900 PM EDT TUE MAY 05 2015

Note: "FAIR" indicates few or no clouds below 12,000 feet
with no significant weather and/or obstructions to visibility.
 TC=TEMPERATURE CELSIUS

 * =Non NWS site. Station does not report precipitation (e.g. rain,
    snow, etc.), thunder, or fog.

DCZ001-MDZ009-015-VAZ040>042-051-053>054-060200-
WASHINGTON METRO

CITY           SKY/WX    TMP DP  RH WIND       PRES   REMARKS
WASHINGTON NAT MOCLDY    70  64  81 S6        30.23R
DULLES         MOCLDY    67  63  89 S5        30.24R
FT BELVOIR     CLOUDY    66  62  86 VRB5      30.24R
QUANTICO       CLOUDY    66  61  84 SW5       30.25R
COLLEGE PARK*  MOCLDY    70  64  83 CALM      30.22R
LEESBURG*      PTCLDY    70  63  78 S5        30.24R
MANASSAS*      CLEAR     64  64 100 CALM      30.24R
GAITHERSBURG*  PTCLDY    68  61  77 SW3       30.27R

$$

MDZ006>007-011-014-060200-
BALTIMORE METRO

CITY           SKY/WX    TMP DP  RH WIND       PRES   REMARKS
BWI AIRPORT    MOCLDY    67  64  90 CALM      30.21R
MD SCIENCE CTR   N/A     72  62  71 MISG      30.22R
MARTIN STATE   CLOUDY    72  63  73 SW3       30.22R
ANNAPOLIS      CLOUDY    68  63  84 S3        30.21R
FORT MEADE*      N/A     64  63  94 SW3       30.24R

$$

MDZ012-015-019>023-060200-
MARYLAND EASTERN SHORE

CITY           SKY/WX    TMP DP  RH WIND       PRES   REMARKS
OCEAN CITY     CLEAR     67  54  63 SW9       30.24R
SALISBURY      MOCLDY    70  57  63 S6        30.22R
BAY BRIDGE AP*   N/A    N/A N/A N/A S7        30.22R
CAMBRIDGE*     MOCLDY    73  59  60 CALM      30.23R
EASTON*        RAIN      70  66  88 SW9       30.26R

$$

MDZ017>025-060200-
SOUTHERN MARYLAND

CITY           SKY/WX    TMP DP  RH WIND       PRES   REMARKS
PATUXENT RIVER LGT RAIN  71  57  61 W16       30.24R
ST INIGOES     MOCLDY    73  57  57 NW12G20   30.23R
LEONARDTOWN*   CLOUDY    64  59  82 NW5       30.28R

$$

MDZ003>005-060200-
NORTH CENTRAL MARYLAND

CITY           SKY/WX    TMP DP  RH WIND       PRES   REMARKS
FREDERICK*     PTCLDY    70  59  68 S6        30.24R
HAGERSTOWN APT PTCLDY    73  58  59 S5        30.21R
WESTMINSTER*   MOCLDY    73  63  68 SW8       30.23R

$$

MDZ501>502-060200-
WESTERN MARYLAND

CITY           SKY/WX    TMP DP  RH WIND       PRES   REMARKS
OAKLAND*       PTCLDY    64  59  82 CALM      30.31R
CUMBERLAND*    PTCLDY    72  57  60 S7        30.25R

$$

VAZ025>031-060200-
SHENANDOAH VALLEY

CITY           SKY/WX    TMP DP  RH WIND       PRES   REMARKS
WINCHESTER*    PTCLDY    70  55  60 CALM      30.22S
FRONT ROYAL*   FAIR      64  59  82 SW3       30.21S
LURAY*         FAIR      64  64 100 CALM      30.24R
NEW MARKET*    FAIR      61  60  97 CALM      30.23R
STAUNTON*      MOCLDY    66  60  82 CALM      30.26R
WAYNESBORO*    CLOUDY    67  60  78 CALM      30.25S

$$

WVZ021-048>050-054>055-060200-
EASTERN WEST VIRGINIA PANHANDLE

CITY           SKY/WX    TMP DP  RH WIND       PRES   REMARKS
MARTINSBURG    PTCLDY    68  61  78 S5        30.22R
PETERSBURG*    PTCLDY    64  59  85 CALM      30.24R

$$

VAZ036>039-050-060200-
CENTRAL FOOTHILLS

CITY           SKY/WX    TMP DP  RH WIND       PRES   REMARKS
CHARLOTTESVILL CLOUDY    69  64  84 SE6       30.24R
CULPEPER*      MOCLDY    66  63  91 CALM      30.24R
ORANGE*        CLOUDY    68  64  88 CALM      30.26S
GORDONSVILLE*  CLOUDY    65  64  97 CALM      30.24R
WARRENTON*     MOCLDY    67  66  96 SE7       30.23S

$$

VAZ055>057-060200-
NORTH AND CENTRAL PIEDMONT

CITY           SKY/WX    TMP DP  RH WIND       PRES   REMARKS
FREDERICKSBRG* DRIZZLE   68  68 100 CALM      30.25R
STAFFORD*      CLOUDY    65  32  29 CALM      30.29R HAZE

$$

NCZ024-NYZ072-PAZ021-071-VAZ022-071-060200-
OTHER REGIONAL OBSERVATIONS

CITY           SKY/WX    TMP DP  RH WIND       PRES   REMARKS
NEW YORK CITY  MOCLDY    72  52  49 CALM      30.19S
PHILADELPHIA   MOCLDY    80  55  42 W7        30.19R
PITTSBURGH     LGT RAIN  70  61  73 NW7       30.23R
ROANOKE        PTCLDY    73  54  51 CALM      30.25R
RICHMOND       MOCLDY    73  61  65 NE8       30.26R
RALEIGH        PTCLDY    72  54  53 S5        30.25R

$$

ANZ530>537-060200-
MARINE OBSERVATIONS

STATION/POSITION TIME  TEMP    WIND        PRES
                       AIR SEA DIR/SP/G
                 (UTC) (F)     (DEG/KT/KT) (MB)
THOMAS PT LIGHT  0100   67 63  200/ 12/ 13 1023.8R
BALT KEY BRIDGE  0000   71     200/ 11/ 13 1021.9R
COVE POINT       0000   66     200/  7/  8 1023.2R
LEWISETTA        0000   75 68              1023.4R
SOLOMONS ISLAND  0012      63                N/A
PINEY POINT      0000          330/ 22/ 24   N/A

$$




USA.gov is the U.S. government's official web portal to all federal, state and local government web resources and services.